10min,FGNet,afork,42.23,12AUG2020:00:00:00,77.1,35.5,21,5.825,75.3,0,3.0,124.4,5.5,0,0.00,0.00,0.00,69.8,.,.,.,.,73.0,.,.,.,.
10min,FGNet,afork,42.23,12AUG2020:00:10:00,75.5,36.1,23,5.83,75.3,0,1.2,97.9,1.9,0,0.00,0.00,0.00,67.4,.,.,.,.,70.0,.,.,.,.
10min,FGNet,afork,42.23,12AUG2020:00:20:00,73.1,37.3,26,5.838,75.3,0,2.0,43.11,3.5,0,0.00,0.00,0.00,66.3,.,.,.,.,68.1,.,.,.,.
10min,FGNet,afork,42.23,12AUG2020:00:30:00,71.6,38.1,27,5.836,75.4,0,2.7,144.6,4.0,0,0.00,0.00,0.00,67.9,.,.,.,.,70.4,.,.,.,.
10min,FGNet,afork,42.23,12AUG2020:00:40:00,71.0,39.0,28,5.835,75.4,0,2.0,82.4,4.2,0,0.00,0.00,0.00,66.3,.,.,.,.,68.0,.,.,.,.
10min,FGNet,afork,42.23,12AUG2020:00:50:00,69.8,39.5,30,5.834,75.4,0,2.6,58.11,4.0,0,0.00,0.00,0.00,66.5,.,.,.,.,68.1,.,.,.,.
10min,FGNet,afork,42.23,12AUG2020:01:00:00,69.8,39.6,30,5.844,75.4,0,2.6,66.58,4.6,0,0.00,0.00,0.00,66.7,.,.,.,.,68.3,.,.,.,.
10min,FGNet,afork,42.23,12AUG2020:01:10:00,70.4,39.0,30,5.839,75.4,0,2.8,100,4.6,0,0.00,0.00,0.00,66.1,.,.,.,.,67.6,.,.,.,.
10min,FGNet,afork,42.23,12AUG2020:01:20:00,70.4,38.9,30,5.843,75.4,0,2.5,117,3.7,0,0.00,0.00,0.00,66.5,.,.,.,.,67.1,.,.,.,.
10min,FGNet,afork,42.23,12AUG2020:01:30:00,70.0,39.4,31,5.84,75.4,0,3.7,98.4,5.1,0,0.00,0.00,0.00,66.5,.,.,.,.,67.7,.,.,.,.
10min,FGNet,afork,42.23,12AUG2020:01:40:00,69.6,39.8,31,5.839,75.4,0,3.6,48.02,5.8,0,0.00,0.00,0.00,67.6,.,.,.,.,69.2,.,.,.,.
10min,FGNet,afork,42.23,12AUG2020:01:50:00,69.1,40.1,31,5.838,75.4,0,3.1,88,4.0,0,0.00,0.00,0.00,67.6,.,.,.,.,69.3,.,.,.,.
10min,FGNet,afork,42.23,12AUG2020:02:00:00,69.0,40.8,32,5.84,75.4,0,2.6,98,4.2,0,0.00,0.00,0.00,66.5,.,.,.,.,68.7,.,.,.,.
10min,FGNet,afork,42.23,12AUG2020:02:10:00,68.3,41.0,33,5.839,75.4,0,2.8,83.5,4.0,0,0.00,0.00,0.00,65.2,.,.,.,.,67.7,.,.,.,.
10min,FGNet,afork,42.23,12AUG2020:02:20:00,67.6,41.3,34,5.847,75.4,0,2.2,57.66,2.8,0,0.00,0.00,0.00,62.4,.,.,.,.,64.4,.,.,.,.
10min,FGNet,afork,42.23,12AUG2020:02:30:00,66.7,41.3,35,5.844,75.4,0,3.1,36.24,3.7,0,0.00,0.00,0.00,62.8,.,.,.,.,64.1,.,.,.,.
10min,FGNet,afork,42.23,12AUG2020:02:40:00,66.3,41.7,37,5.844,75.4,0,2.8,25.47,3.5,0,0.00,0.00,0.00,61.5,.,.,.,.,62.7,.,.,.,.
10min,FGNet,afork,42.23,12AUG2020:02:50:00,65.3,41.9,39,5.844,75.4,0,3.4,44.01,4.9,0,0.00,0.00,0.00,61.9,.,.,.,.,62.8,.,.,.,.
10min,FGNet,afork,42.23,12AUG2020:03:00:00,64.9,41.4,40,5.854,75.4,0,4.7,34.6,6.5,0,0.00,0.00,0.00,62.7,.,.,.,.,63.6,.,.,.,.
10min,FGNet,afork,42.23,12AUG2020:03:10:00,64.9,40.8,40,5.847,75.4,0,3.7,59.94,5.5,0,0.00,0.00,0.00,61.8,.,.,.,.,62.7,.,.,.,.
10min,FGNet,afork,42.23,12AUG2020:03:20:00,64.7,39.9,39,5.852,75.4,0,5.2,33.42,7.3,0,0.00,0.00,0.00,61.6,.,.,.,.,62.6,.,.,.,.
10min,FGNet,afork,42.23,12AUG2020:03:30:00,64.8,39.1,38,5.848,75.4,0,5.7,55.17,7.3,0,0.00,0.00,0.00,61.9,.,.,.,.,63.1,.,.,.,.
10min,FGNet,afork,42.23,12AUG2020:03:40:00,65.0,38.9,37,5.855,75.4,0,4.9,33.42,6.5,0,0.00,0.00,0.00,62.4,.,.,.,.,63.3,.,.,.,.
10min,FGNet,afork,42.23,12AUG2020:03:50:00,64.7,38.8,37,5.856,75.4,0,3.8,30.45,5.8,0,0.00,0.00,0.00,60.9,.,.,.,.,62.1,.,.,.,.
10min,FGNet,afork,42.23,12AUG2020:04:00:00,64.3,38.5,37,5.855,75.4,0,3.7,85.6,5.5,0,0.00,0.00,0.00,60.2,.,.,.,.,61.5,.,.,.,.
10min,FGNet,afork,42.23,12AUG2020:04:10:00,63.6,38.7,38,5.849,75.4,0,3.6,36.39,5.3,0,0.00,0.00,0.00,59.6,.,.,.,.,61.2,.,.,.,.
10min,FGNet,afork,42.23,12AUG2020:04:20:00,63.1,39.2,39,5.854,75.3,0,3.9,25.75,4.9,0,0.00,0.00,0.00,59.3,.,.,.,.,60.5,.,.,.,.
10min,FGNet,afork,42.23,12AUG2020:04:30:00,62.8,40.0,41,5.852,75.3,0,2.9,46.23,3.9,0,0.00,0.00,0.00,59.5,.,.,.,.,60.9,.,.,.,.
10min,FGNet,afork,42.23,12AUG2020:04:40:00,61.8,40.6,41,5.852,75.3,0,3.0,62.77,3.7,0,0.00,0.00,0.00,58.3,.,.,.,.,59.6,.,.,.,.
10min,FGNet,afork,42.23,12AUG2020:04:50:00,61.5,40.9,43,5.85,75.3,0,2.7,26.68,3.3,0,0.00,0.00,0.00,57.9,.,.,.,.,58.9,.,.,.,.
10min,FGNet,afork,42.23,12AUG2020:05:00:00,61.6,40.5,43,5.854,75.3,0,4.2,46.16,6.9,0,0.00,0.00,0.00,59.9,.,.,.,.,60.7,.,.,.,.
10min,FGNet,afork,42.23,12AUG2020:05:10:00,61.7,40.2,43,5.862,75.3,0,5.1,67.76,6.2,0,0.00,0.00,0.00,60.2,.,.,.,.,61.0,.,.,.,.
10min,FGNet,afork,42.23,12AUG2020:05:20:00,62.1,39.6,41,5.863,75.3,0,3.9,36.36,5.3,0,0.00,0.00,0.00,59.5,.,.,.,.,60.4,.,.,.,.
10min,FGNet,afork,42.23,12AUG2020:05:30:00,62.0,39.4,41,5.861,75.3,0,3.4,49.1,4.8,0,0.00,0.00,0.00,58.9,.,.,.,.,59.9,.,.,.,.
10min,FGNet,afork,42.23,12AUG2020:05:40:00,61.9,39.3,41,5.857,75.3,0,3.1,24.86,4.6,0,0.00,0.00,0.00,58.4,.,.,.,.,59.2,.,.,.,.
10min,FGNet,afork,42.23,12AUG2020:05:50:00,61.3,39.7,42,5.859,75.2,0,4.5,91.2,6.0,0,0.00,0.00,0.00,60.7,.,.,.,.,61.1,.,.,.,.
10min,FGNet,afork,42.23,12AUG2020:06:00:00,62.8,38.5,39,5.864,75.3,0,4.4,34.49,5.1,0,0.00,0.00,0.00,61.2,.,.,.,.,62.1,.,.,.,.
10min,FGNet,afork,42.23,12AUG2020:06:10:00,63.3,38.6,38,5.858,75.2,0,3.7,32.86,4.9,0,0.00,0.00,0.00,60.3,.,.,.,.,61.4,.,.,.,.
10min,FGNet,afork,42.23,12AUG2020:06:20:00,62.7,39.7,41,5.859,75.2,0,3.0,37.9,4.0,0,0.00,0.00,0.00,59.4,.,.,.,.,60.4,.,.,.,.
10min,FGNet,afork,42.23,12AUG2020:06:30:00,61.7,40.4,43,5.857,75.2,1,3.1,69.52,4.0,0,0.00,0.00,0.00,57.3,.,.,.,.,58.4,.,.,.,.
10min,FGNet,afork,42.23,12AUG2020:06:40:00,60.0,40.5,45,5.863,75.2,4,3.1,246.8,4.4,0,0.00,0.00,0.00,58.2,.,.,.,.,58.8,.,.,.,.
10min,FGNet,afork,42.23,12AUG2020:06:50:00,60.4,39.5,42,5.864,75.2,11,3.4,39.12,4.6,0,0.00,0.00,0.00,59.3,.,.,.,.,60.0,.,.,.,.
10min,FGNet,afork,42.23,12AUG2020:07:00:00,61.3,39.9,42,5.868,75.1,23,3.2,66.92,4.6,0,0.00,0.00,0.00,59.9,.,.,.,.,60.7,.,.,.,.
10min,FGNet,afork,42.23,12AUG2020:07:10:00,61.3,40.6,44,5.863,75.1,31,3.5,82,4.6,0,0.00,0.00,0.00,59.9,.,.,.,.,60.5,.,.,.,.
10min,FGNet,afork,42.23,12AUG2020:07:20:00,61.3,41.4,46,5.859,75.1,40,2.8,56.92,4.2,0,0.00,0.00,0.00,60.6,.,.,.,.,61.1,.,.,.,.
10min,FGNet,afork,42.23,12AUG2020:07:30:00,61.4,43.1,49,5.866,75.1,55,3.3,39.16,4.0,0,0.00,0.00,0.00,61.7,.,.,.,.,63.1,.,.,.,.
10min,FGNet,afork,42.23,12AUG2020:07:40:00,61.7,44.5,50,5.867,75.0,85,3.3,34.71,4.4,0,0.00,0.00,0.00,64.1,.,.,.,.,64.0,.,.,.,.
10min,FGNet,afork,42.23,12AUG2020:07:50:00,63.2,45.6,49,5.859,75.0,188,3.5,28.61,4.6,0,0.00,0.00,0.00,68.3,.,.,.,.,72.3,.,.,.,.
10min,FGNet,afork,42.23,12AUG2020:08:00:00,64.7,46.1,48,5.864,74.9,150,3.4,101.6,4.8,0,0.00,0.00,0.00,67.2,.,.,.,.,70.3,.,.,.,.
10min,FGNet,afork,42.23,12AUG2020:08:10:00,65.6,46.3,47,5.863,74.9,223,2.1,153.5,3.9,0,0.00,0.00,0.00,71.6,.,.,.,.,78.9,.,.,.,.
10min,FGNet,afork,42.23,12AUG2020:08:20:00,66.3,47.8,46,5.867,74.9,247,0.8,111.6,2.6,0,0.00,0.00,0.00,73.1,.,.,.,.,87.1,.,.,.,.
10min,FGNet,afork,42.23,12AUG2020:08:30:00,67.7,49.2,46,5.862,74.9,352,1.0,240.3,2.3,0,0.00,0.00,0.00,80.4,.,.,.,.,91.9,.,.,.,.
10min,FGNet,afork,42.23,12AUG2020:08:40:00,70.0,48.8,43,5.86,74.9,427,2.3,283.5,4.6,0,0.00,0.00,0.00,82.0,.,.,.,.,93.0,.,.,.,.
10min,FGNet,afork,42.23,12AUG2020:08:50:00,72.0,49.4,43,5.863,74.8,364,2.1,273.1,3.9,0,0.00,0.00,0.00,81.5,.,.,.,.,85.3,.,.,.,.
10min,FGNet,afork,42.23,12AUG2020:09:00:00,72.6,49.9,44,5.862,74.8,254,2.4,276,4.0,0,0.00,0.00,0.00,76.4,.,.,.,.,77.7,.,.,.,.
10min,FGNet,afork,42.23,12AUG2020:09:10:00,72.9,50.9,46,5.866,74.8,404,0.3,277.8,3.0,0,0.00,0.00,0.00,86.5,.,.,.,.,91.5,.,.,.,.
10min,FGNet,afork,42.23,12AUG2020:09:20:00,73.9,51.3,45,5.863,74.8,466,2.8,302.1,4.9,0,0.00,0.00,0.00,83.0,.,.,.,.,82.4,.,.,.,.
10min,FGNet,afork,42.23,12AUG2020:09:30:00,74.5,52.2,46,5.866,74.7,323,1.8,260.1,4.2,0,0.00,0.00,0.00,79.7,.,.,.,.,79.4,.,.,.,.
10min,FGNet,afork,42.23,12AUG2020:09:40:00,74.2,51.7,45,5.867,74.7,480,3.2,315.6,5.1,0,0.00,0.00,0.00,88.5,.,.,.,.,94.8,.,.,.,.
10min,FGNet,afork,42.23,12AUG2020:09:50:00,74.9,50.1,41,5.867,74.7,387,2.0,162.8,4.6,0,0.00,0.00,0.00,93.5,.,.,.,.,92.6,.,.,.,.
10min,FGNet,afork,42.23,12AUG2020:10:00:00,76.0,49.9,39,5.869,74.6,525,1.6,97.2,3.1,0,0.00,0.00,0.00,98.1,.,.,.,.,98.3,.,.,.,.
10min,FGNet,afork,42.23,12AUG2020:10:10:00,77.6,49.4,37,5.866,74.6,569,2.0,178.9,2.8,0,0.00,0.00,0.00,100.7,.,.,.,.,97.6,.,.,.,.
10min,FGNet,afork,42.23,12AUG2020:10:20:00,78.5,48.8,36,5.869,74.6,518,1.7,149.1,3.1,0,0.00,0.00,0.00,89.5,.,.,.,.,87.0,.,.,.,.
10min,FGNet,afork,42.23,12AUG2020:10:30:00,79.8,48.8,34,5.869,74.6,670,2.8,111.3,4.6,0,0.00,0.00,0.00,101.9,.,.,.,.,93.1,.,.,.,.
10min,FGNet,afork,42.23,12AUG2020:10:40:00,81.7,46.8,30,5.868,74.5,680,2.3,139.9,4.4,0,0.00,0.00,0.00,110.6,.,.,.,.,100.7,.,.,.,.
10min,FGNet,afork,42.23,12AUG2020:10:50:00,83.0,44.3,26,5.868,74.5,684,3.2,159.2,5.5,0,0.00,0.00,0.00,102.2,.,.,.,.,92.8,.,.,.,.
10min,FGNet,afork,42.23,12AUG2020:11:00:00,83.1,37.7,20,5.867,74.5,682,5.1,165.5,8.5,0,0.00,0.00,0.00,102.7,.,.,.,.,92.8,.,.,.,.
10min,FGNet,afork,42.23,12AUG2020:11:10:00,83.3,33.2,17,5.869,74.4,755,5.6,165.7,10.3,0,0.00,0.00,0.00,101.9,.,.,.,.,92.3,.,.,.,.
10min,FGNet,afork,42.23,12AUG2020:11:20:00,84.6,34.4,17,5.868,74.4,774,4.9,158.5,7.6,0,0.00,0.00,0.00,106.4,.,.,.,.,93.8,.,.,.,.
10min,FGNet,afork,42.23,12AUG2020:11:30:00,84.9,31.8,15,5.866,74.4,755,4.6,166.8,7.8,0,0.00,0.00,0.00,105.6,.,.,.,.,94.0,.,.,.,.
10min,FGNet,afork,42.23,12AUG2020:11:40:00,86.0,32.4,15,5.869,74.4,814,5.3,162.7,8.3,0,0.00,0.00,0.00,107.7,.,.,.,.,94.0,.,.,.,.
10min,FGNet,afork,42.23,12AUG2020:11:50:00,86.6,32.2,15,5.869,74.4,834,5.1,148.9,8.0,0,0.00,0.00,0.00,108.4,.,.,.,.,94.0,.,.,.,.
10min,FGNet,afork,42.23,12AUG2020:12:00:00,86.6,31.4,14,5.868,74.3,852,5.1,140,7.8,0,0.00,0.00,0.00,115.1,.,.,.,.,96.2,.,.,.,.
10min,FGNet,afork,42.23,12AUG2020:12:10:00,87.4,32.5,15,5.864,74.3,869,4.7,161.3,8.3,0,0.00,0.00,0.00,114.6,.,.,.,.,97.1,.,.,.,.
10min,FGNet,afork,42.23,12AUG2020:12:20:00,87.7,32.9,15,5.868,74.3,884,5.1,147.5,7.8,0,0.00,0.00,0.00,121.7,.,.,.,.,98.2,.,.,.,.
10min,FGNet,afork,42.23,12AUG2020:12:30:00,88.9,33.1,15,5.866,74.3,895,4.4,151,8.2,0,0.00,0.00,0.00,120.2,.,.,.,.,98.6,.,.,.,.
10min,FGNet,afork,42.23,12AUG2020:12:40:00,90.0,33.7,15,5.87,74.3,919,5.2,115,8.7,0,0.00,0.00,0.00,115.7,.,.,.,.,97.1,.,.,.,.
10min,FGNet,afork,42.23,12AUG2020:12:50:00,89.6,33.2,14,5.868,74.2,933,5.2,152,7.6,0,0.00,0.00,0.00,116.6,.,.,.,.,97.4,.,.,.,.
10min,FGNet,afork,42.23,12AUG2020:13:00:00,89.2,31.4,13,5.868,74.2,951,6.3,151.6,9.1,0,0.00,0.00,0.00,118.4,.,.,.,.,97.1,.,.,.,.
10min,FGNet,afork,42.23,12AUG2020:13:10:00,89.3,30.6,13,5.871,74.2,966,6.2,159.9,10.8,0,0.00,0.00,0.00,117.1,.,.,.,.,97.8,.,.,.,.
10min,FGNet,afork,42.23,12AUG2020:13:20:00,89.7,30.5,13,5.87,74.2,980,6.4,143.8,10.5,0,0.00,0.00,0.00,125.1,.,.,.,.,106.3,.,.,.,.
10min,FGNet,afork,42.23,12AUG2020:13:30:00,91.0,29.6,12,5.868,74.2,991,6.4,160.2,13.9,0,0.00,0.00,0.00,121.2,.,.,.,.,99.2,.,.,.,.
10min,FGNet,afork,42.23,12AUG2020:13:40:00,89.8,27.1,11,5.869,74.2,921,7.1,157.6,12.1,0,0.00,0.00,0.00,121.6,.,.,.,.,98.6,.,.,.,.
10min,FGNet,afork,42.23,12AUG2020:13:50:00,89.8,27.2,11,5.869,74.2,790,6.6,160.1,10.8,0,0.00,0.00,0.00,118.8,.,.,.,.,97.1,.,.,.,.
10min,FGNet,afork,42.23,12AUG2020:14:00:00,90.1,26.5,10,5.869,74.2,924,8.9,157.3,12.6,0,0.00,0.00,0.00,96.4,.,.,.,.,93.2,.,.,.,.
10min,FGNet,afork,42.23,12AUG2020:14:10:00,88.5,25.8,10,5.872,74.2,499,9.2,164.2,13.2,0,0.00,0.00,0.00,92.6,.,.,.,.,89.7,.,.,.,.
10min,FGNet,afork,42.23,12AUG2020:14:20:00,88.3,26.5,11,5.87,74.1,612,7.4,153.8,10.8,0,0.00,0.00,0.00,117.2,.,.,.,.,97.2,.,.,.,.
10min,FGNet,afork,42.23,12AUG2020:14:30:00,90.6,28.8,11,5.87,74.1,856,7.7,166.7,13.0,0,0.00,0.00,0.00,91.7,.,.,.,.,91.4,.,.,.,.
10min,FGNet,afork,42.23,12AUG2020:14:40:00,88.8,29.4,12,5.87,74.1,541,6.1,161.5,10.3,0,0.00,0.00,0.00,121.7,.,.,.,.,100.0,.,.,.,.
10min,FGNet,afork,42.23,12AUG2020:14:50:00,91.0,30.6,12,5.871,74.2,930,7.3,158,12.5,0,0.00,0.00,0.00,124.3,.,.,.,.,100.7,.,.,.,.
10min,FGNet,afork,42.23,12AUG2020:15:00:00,90.2,31.4,12,5.869,74.2,661,7.3,167.5,12.1,0,0.00,0.00,0.00,118.5,.,.,.,.,97.8,.,.,.,.
10min,FGNet,afork,42.23,12AUG2020:15:10:00,89.6,31.7,13,5.87,74.2,462,6.6,176.3,9.4,0,0.00,0.00,0.00,110.1,.,.,.,.,94.8,.,.,.,.
10min,FGNet,afork,42.23,12AUG2020:15:20:00,90.7,30.1,12,5.871,74.2,953,6.7,164.2,10.3,0,0.00,0.00,0.00,118.8,.,.,.,.,98.9,.,.,.,.
10min,FGNet,afork,42.23,12AUG2020:15:30:00,89.3,30.9,12,5.871,74.2,406,6.4,168.4,9.4,0,0.00,0.00,0.00,114.0,.,.,.,.,96.2,.,.,.,.
10min,FGNet,afork,42.23,12AUG2020:15:40:00,91.7,30.0,12,5.869,74.2,931,6.8,200.5,13.5,0,0.00,0.00,0.00,113.4,.,.,.,.,99.0,.,.,.,.
10min,FGNet,afork,42.23,12AUG2020:15:50:00,93.0,32.1,12,5.87,74.2,850,4.4,138.3,9.4,0,0.00,0.00,0.00,98.7,.,.,.,.,95.1,.,.,.,.
10min,FGNet,afork,42.23,12AUG2020:16:00:00,89.8,29.7,11,5.873,74.2,468,7.8,173.6,11.4,0,0.00,0.00,0.00,94.6,.,.,.,.,92.3,.,.,.,.
10min,FGNet,afork,42.23,12AUG2020:16:10:00,88.8,29.2,12,5.871,74.2,446,6.9,160.7,9.9,0,0.00,0.00,0.00,109.6,.,.,.,.,99.6,.,.,.,.
10min,FGNet,afork,42.23,12AUG2020:16:20:00,91.7,30.7,12,5.871,74.2,869,6.4,182.5,11.7,0,0.00,0.00,0.00,109.2,.,.,.,.,99.4,.,.,.,.
10min,FGNet,afork,42.23,12AUG2020:16:30:00,91.3,30.8,12,5.87,74.2,459,7.0,191.5,10.3,0,0.00,0.00,0.00,90.6,.,.,.,.,90.4,.,.,.,.
10min,FGNet,afork,42.23,12AUG2020:16:40:00,88.3,29.7,12,5.872,74.3,170,5.5,182.6,8.3,0,0.00,0.00,0.00,92.0,.,.,.,.,89.4,.,.,.,.
10min,FGNet,afork,42.23,12AUG2020:16:50:00,87.7,34.9,15,5.869,74.3,302,7.5,279.6,15.0,0,0.00,0.00,0.00,93.2,.,.,.,.,91.9,.,.,.,.
10min,FGNet,afork,42.23,12AUG2020:17:00:00,86.6,38.1,18,5.873,74.3,217,8.0,216.1,12.1,0,0.00,0.00,0.00,88.3,.,.,.,.,87.8,.,.,.,.
10min,FGNet,afork,42.23,12AUG2020:17:10:00,86.1,38.8,18,5.872,74.3,309,7.8,115.6,11.9,0,0.00,0.00,0.00,90.3,.,.,.,.,90.1,.,.,.,.
10min,FGNet,afork,42.23,12AUG2020:17:20:00,85.4,40.0,19,5.874,74.3,197,6.4,145.1,9.8,0,0.00,0.00,0.00,93.3,.,.,.,.,89.6,.,.,.,.
10min,FGNet,afork,42.23,12AUG2020:17:30:00,84.6,40.5,20,5.876,74.4,273,6.0,154.8,9.6,0,0.00,0.00,0.00,106.3,.,.,.,.,97.3,.,.,.,.
10min,FGNet,afork,42.23,12AUG2020:17:40:00,86.1,39.0,18,5.876,74.4,376,7.4,287.7,10.5,0,0.00,0.00,0.00,88.1,.,.,.,.,89.0,.,.,.,.
10min,FGNet,afork,42.23,12AUG2020:17:50:00,84.7,38.0,18,5.874,74.4,127,7.5,225.7,11.0,0,0.00,0.00,0.00,87.5,.,.,.,.,86.4,.,.,.,.
10min,FGNet,afork,42.23,12AUG2020:18:00:00,85.0,39.0,19,5.877,74.4,273,5.9,217.5,9.1,0,0.00,0.00,0.00,95.2,.,.,.,.,94.3,.,.,.,.
10min,FGNet,afork,42.23,12AUG2020:18:10:00,87.5,38.9,18,5.877,74.4,497,5.6,141.6,9.1,0,0.00,0.00,0.00,98.0,.,.,.,.,96.1,.,.,.,.
10min,FGNet,afork,42.23,12AUG2020:18:20:00,87.2,35.7,16,5.877,74.4,298,6.2,164.5,10.5,0,0.00,0.00,0.00,87.8,.,.,.,.,89.1,.,.,.,.
10min,FGNet,afork,42.23,12AUG2020:18:30:00,85.9,37.2,17,5.875,74.5,191,3.1,92.7,5.7,0,0.00,0.00,0.00,92.0,.,.,.,.,88.9,.,.,.,.
10min,FGNet,afork,42.23,12AUG2020:18:40:00,85.1,40.0,19,5.879,74.5,179,3.7,175.9,6.9,0,0.00,0.00,0.00,84.1,.,.,.,.,85.3,.,.,.,.
10min,FGNet,afork,42.23,12AUG2020:18:50:00,84.3,39.5,19,5.881,74.5,188,7.3,192.4,9.8,0,0.00,0.00,0.00,86.0,.,.,.,.,86.3,.,.,.,.
10min,FGNet,afork,42.23,12AUG2020:19:00:00,84.9,38.8,19,5.877,74.5,231,7.1,221.1,9.6,0,0.00,0.00,0.00,86.0,.,.,.,.,86.6,.,.,.,.
10min,FGNet,afork,42.23,12AUG2020:19:10:00,84.7,39.4,19,5.875,74.6,173,6.8,305.9,9.2,0,0.00,0.00,0.00,83.4,.,.,.,.,84.7,.,.,.,.
10min,FGNet,afork,42.23,12AUG2020:19:20:00,83.4,39.7,20,5.88,74.6,113,6.0,256.7,8.5,0,0.00,0.00,0.00,82.6,.,.,.,.,83.3,.,.,.,.
10min,FGNet,afork,42.23,12AUG2020:19:30:00,83.4,39.5,20,5.881,74.6,105,6.2,310.9,8.7,0,0.00,0.00,0.00,82.8,.,.,.,.,83.5,.,.,.,.
10min,FGNet,afork,42.23,12AUG2020:19:40:00,83.7,38.6,19,5.88,74.7,55,7.0,265,9.6,0,0.00,0.00,0.00,82.6,.,.,.,.,83.2,.,.,.,.
10min,FGNet,afork,42.23,12AUG2020:19:50:00,83.0,38.7,20,5.884,74.7,55,6.8,208.8,8.5,0,0.00,0.00,0.00,81.3,.,.,.,.,82.0,.,.,.,.
10min,FGNet,afork,42.23,12AUG2020:20:00:00,82.4,38.1,20,5.885,74.8,40,6.6,221.2,8.2,0,0.00,0.00,0.00,79.3,.,.,.,.,80.5,.,.,.,.
10min,FGNet,afork,42.23,12AUG2020:20:10:00,81.4,38.0,20,5.888,74.8,20,6.3,175.9,7.6,0,0.00,0.00,0.00,78.2,.,.,.,.,79.4,.,.,.,.
10min,FGNet,afork,42.23,12AUG2020:20:20:00,80.2,38.6,21,5.887,74.8,10,5.8,81.4,7.3,0,0.00,0.00,0.00,76.7,.,.,.,.,77.9,.,.,.,.
10min,FGNet,afork,42.23,12AUG2020:20:30:00,78.9,39.0,22,5.882,74.8,4,4.8,80.9,6.4,0,0.00,0.00,0.00,74.4,.,.,.,.,75.8,.,.,.,.
10min,FGNet,afork,42.23,12AUG2020:20:40:00,77.6,39.2,24,5.883,74.8,1,4.8,57.01,6.5,0,0.00,0.00,0.00,74.6,.,.,.,.,75.7,.,.,.,.
10min,FGNet,afork,42.23,12AUG2020:20:50:00,77.0,39.5,25,5.882,74.9,0,4.3,49.65,5.5,0,0.00,0.00,0.00,72.8,.,.,.,.,74.1,.,.,.,.
10min,FGNet,afork,42.23,12AUG2020:21:00:00,76.0,39.7,25,5.879,74.9,0,4.7,56.01,5.8,0,0.00,0.00,0.00,72.6,.,.,.,.,73.7,.,.,.,.
10min,FGNet,afork,42.23,12AUG2020:21:10:00,75.1,39.5,26,5.881,74.9,0,5.7,96.3,7.3,0,0.00,0.00,0.00,72.0,.,.,.,.,73.1,.,.,.,.
10min,FGNet,afork,42.23,12AUG2020:21:20:00,74.5,39.3,27,5.886,74.9,0,5.9,89.4,7.3,0,0.00,0.00,0.00,72.5,.,.,.,.,73.3,.,.,.,.
10min,FGNet,afork,42.23,12AUG2020:21:30:00,74.4,38.8,26,5.879,74.9,0,6.8,71.14,8.3,0,0.00,0.00,0.00,72.3,.,.,.,.,73.1,.,.,.,.
10min,FGNet,afork,42.23,12AUG2020:21:40:00,74.9,37.7,25,5.882,74.9,0,6.3,78.99,8.3,0,0.00,0.00,0.00,72.7,.,.,.,.,73.6,.,.,.,.
10min,FGNet,afork,42.23,12AUG2020:21:50:00,75.1,37.1,24,5.884,75.0,0,6.0,108.3,7.1,0,0.00,0.00,0.00,72.4,.,.,.,.,73.3,.,.,.,.
10min,FGNet,afork,42.23,12AUG2020:22:00:00,75.2,36.5,24,5.885,75.0,0,6.0,90.9,8.5,0,0.00,0.00,0.00,72.6,.,.,.,.,73.6,.,.,.,.
10min,FGNet,afork,42.23,12AUG2020:22:10:00,75.1,36.3,24,5.885,75.0,0,6.0,99.4,7.6,0,0.00,0.00,0.00,72.1,.,.,.,.,73.2,.,.,.,.
10min,FGNet,afork,42.23,12AUG2020:22:20:00,74.7,36.0,24,5.895,75.1,0,5.7,118.3,7.6,0,0.00,0.00,0.00,71.4,.,.,.,.,72.5,.,.,.,.
10min,FGNet,afork,42.23,12AUG2020:22:30:00,74.1,36.2,24,5.886,75.1,0,5.5,155.6,7.4,0,0.00,0.00,0.00,71.4,.,.,.,.,72.2,.,.,.,.
10min,FGNet,afork,42.23,12AUG2020:22:40:00,73.7,36.1,24,5.893,75.1,0,5.9,84.6,7.8,0,0.00,0.00,0.00,70.4,.,.,.,.,72.2,.,.,.,.
10min,FGNet,afork,42.23,12AUG2020:22:50:00,73.7,35.7,23,5.891,75.1,0,3.5,93.6,5.5,0,0.00,0.00,0.00,72.5,.,.,.,.,73.1,.,.,.,.
10min,FGNet,afork,42.23,12AUG2020:23:00:00,74.4,35.4,23,5.889,75.1,0,4.8,309.4,6.2,0,0.00,0.00,0.00,71.4,.,.,.,.,72.6,.,.,.,.
10min,FGNet,afork,42.23,12AUG2020:23:10:00,73.7,36.0,24,5.889,75.1,0,4.4,41.67,6.4,0,0.00,0.00,0.00,70.1,.,.,.,.,71.3,.,.,.,.
10min,FGNet,afork,42.23,12AUG2020:23:20:00,73.0,36.6,25,5.895,75.1,0,3.9,41.97,6.0,0,0.00,0.00,0.00,68.8,.,.,.,.,70.2,.,.,.,.
10min,FGNet,afork,42.23,12AUG2020:23:30:00,72.9,38.2,27,5.894,75.1,0,3.5,28.98,4.8,0,0.00,0.00,0.00,68.2,.,.,.,.,69.8,.,.,.,.
10min,FGNet,afork,42.23,12AUG2020:23:40:00,72.5,41.0,30,5.885,75.1,0,3.9,45.6,5.7,0,0.00,0.00,0.00,68.9,.,.,.,.,69.9,.,.,.,.
10min,FGNet,afork,42.23,12AUG2020:23:50:00,71.9,42.8,32,5.891,75.1,0,3.3,37.53,4.4,0,0.00,0.00,0.00,67.4,.,.,.,.,68.5,.,.,.,.
10min,FGNet,afork,42.23,13AUG2020:00:00:00,71.0,42.3,33,5.892,75.2,0,3.9,40.31,5.3,0,0.00,0.00,0.00,67.2,.,.,.,.,68.9,.,.,.,.
10min,FGNet,afork,42.23,13AUG2020:00:10:00,72.4,38.2,26,5.892,75.2,0,3.6,49.34,5.7,0,0.00,0.00,0.00,67.9,.,.,.,.,70.2,.,.,.,.
10min,FGNet,afork,42.23,13AUG2020:00:20:00,72.8,35.8,23,5.897,75.2,0,3.2,65.58,6.2,0,0.00,0.00,0.00,68.9,.,.,.,.,71.2,.,.,.,.
10min,FGNet,afork,42.23,13AUG2020:00:30:00,71.8,36.4,25,5.893,75.2,0,1.0,118.3,3.0,0,0.00,0.00,0.00,67.9,.,.,.,.,70.3,.,.,.,.
10min,FGNet,afork,42.23,13AUG2020:00:40:00,70.2,40.1,29,5.889,75.2,0,2.4,211.6,3.9,0,0.00,0.00,0.00,65.8,.,.,.,.,67.8,.,.,.,.
10min,FGNet,afork,42.23,13AUG2020:00:50:00,68.7,40.9,32,5.908,75.2,0,1.6,197.9,4.4,0,0.00,0.00,0.00,64.7,.,.,.,.,66.0,.,.,.,.
10min,FGNet,alpine,42.04,12AUG2020:00:00:00,62.2,41.5,39,17.54,66.5,0,2.4,143.3,4.0,0,0.00,0.00,0.00,60.2,.,.,.,.,61.8,.,.,.,.
10min,FGNet,alpine,42.04,12AUG2020:00:10:00,61.7,41.6,40,17.51,66.5,0,0.4,111.6,3.9,0,0.00,0.00,0.00,59.5,.,.,.,.,61.0,.,.,.,.
10min,FGNet,alpine,42.04,12AUG2020:00:20:00,61.8,41.0,41,17.59,66.3,0,2.9,77.73,4.6,0,0.00,0.00,0.00,60.3,.,.,.,.,62.7,.,.,.,.
10min,FGNet,alpine,42.04,12AUG2020:00:30:00,61.0,40.2,40,17.54,66.4,0,1.8,176.1,3.3,0,0.00,0.00,0.00,57.3,.,.,.,.,58.7,.,.,.,.
10min,FGNet,alpine,42.04,12AUG2020:00:40:00,60.0,41.3,43,17.53,66.4,0,2.8,66.5,3.9,0,0.00,0.00,0.00,57.6,.,.,.,.,59.8,.,.,.,.
10min,FGNet,alpine,42.04,12AUG2020:00:50:00,59.4,40.1,42,17.54,66.3,0,1.9,131.6,3.5,0,0.00,0.00,0.00,56.3,.,.,.,.,59.2,.,.,.,.
10min,FGNet,alpine,42.04,12AUG2020:01:00:00,59.6,40.5,43,17.54,66.3,0,2.5,93.2,3.7,0,0.00,0.00,0.00,57.9,.,.,.,.,59.3,.,.,.,.
10min,FGNet,alpine,42.04,12AUG2020:01:10:00,59.8,40.3,43,17.55,66.2,0,2.3,87.7,4.2,0,0.00,0.00,0.00,56.5,.,.,.,.,58.3,.,.,.,.
10min,FGNet,alpine,42.04,12AUG2020:01:20:00,59.3,40.1,43,17.53,66.2,0,1.8,115.5,3.0,0,0.00,0.00,0.00,56.9,.,.,.,.,58.9,.,.,.,.
10min,FGNet,alpine,42.04,12AUG2020:01:30:00,58.2,40.5,45,17.55,66.1,0,0.2,115.4,2.3,0,0.00,0.00,0.00,54.7,.,.,.,.,56.6,.,.,.,.
10min,FGNet,alpine,42.04,12AUG2020:01:40:00,57.8,40.1,45,17.54,66.1,0,2.7,120.6,3.7,0,0.00,0.00,0.00,56.8,.,.,.,.,58.3,.,.,.,.
10min,FGNet,alpine,42.04,12AUG2020:01:50:00,59.4,38.4,41,17.54,66.1,0,2.5,55.71,4.0,0,0.00,0.00,0.00,54.6,.,.,.,.,56.2,.,.,.,.
10min,FGNet,alpine,42.04,12AUG2020:02:00:00,57.7,39.5,45,17.53,65.9,0,2.4,181,3.7,0,0.00,0.00,0.00,54.7,.,.,.,.,56.3,.,.,.,.
10min,FGNet,alpine,42.04,12AUG2020:02:10:00,58.3,39.1,45,17.55,66.0,0,3.8,79.55,5.8,0,0.00,0.00,0.00,57.3,.,.,.,.,59.1,.,.,.,.
10min,FGNet,alpine,42.04,12AUG2020:02:20:00,57.9,38.7,43,17.55,66.0,0,2.1,92.6,3.3,0,0.00,0.00,0.00,54.5,.,.,.,.,56.3,.,.,.,.
10min,FGNet,alpine,42.04,12AUG2020:02:30:00,56.9,38.8,44,17.56,65.9,0,3.1,65.52,4.9,0,0.00,0.00,0.00,56.8,.,.,.,.,58.9,.,.,.,.
10min,FGNet,alpine,42.04,12AUG2020:02:40:00,58.0,38.2,42,17.52,65.9,0,3.0,154.4,5.1,0,0.00,0.00,0.00,55.0,.,.,.,.,56.5,.,.,.,.
10min,FGNet,alpine,42.04,12AUG2020:02:50:00,56.7,39.1,45,17.53,65.8,0,0.9,106.1,3.0,0,0.00,0.00,0.00,54.8,.,.,.,.,56.4,.,.,.,.
10min,FGNet,alpine,42.04,12AUG2020:03:00:00,57.4,39.2,45,17.5,65.7,0,2.8,74.37,4.6,0,0.00,0.00,0.00,55.4,.,.,.,.,56.8,.,.,.,.
10min,FGNet,alpine,42.04,12AUG2020:03:10:00,57.0,38.5,44,17.52,65.6,0,2.9,53.28,3.9,0,0.00,0.00,0.00,56.5,.,.,.,.,58.2,.,.,.,.
10min,FGNet,alpine,42.04,12AUG2020:03:20:00,57.0,39.2,45,17.51,65.6,0,0.9,91,3.5,0,0.00,0.00,0.00,53.9,.,.,.,.,55.6,.,.,.,.
10min,FGNet,alpine,42.04,12AUG2020:03:30:00,55.7,39.3,47,17.52,65.5,0,1.0,56.43,3.1,0,0.00,0.00,0.00,53.3,.,.,.,.,55.1,.,.,.,.
10min,FGNet,alpine,42.04,12AUG2020:03:40:00,55.5,38.7,46,17.52,65.6,0,2.5,51.79,3.9,0,0.00,0.00,0.00,52.7,.,.,.,.,53.9,.,.,.,.
10min,FGNet,alpine,42.04,12AUG2020:03:50:00,55.4,39.3,47,17.49,65.4,0,1.9,73.79,3.9,0,0.00,0.00,0.00,52.8,.,.,.,.,54.1,.,.,.,.
10min,FGNet,alpine,42.04,12AUG2020:04:00:00,55.9,39.9,48,17.49,65.4,0,1.9,121.5,3.1,0,0.00,0.00,0.00,53.4,.,.,.,.,55.3,.,.,.,.
10min,FGNet,alpine,42.04,12AUG2020:04:10:00,55.6,40.0,49,17.53,65.3,0,1.9,91.6,3.7,0,0.00,0.00,0.00,53.3,.,.,.,.,55.2,.,.,.,.
10min,FGNet,alpine,42.04,12AUG2020:04:20:00,55.0,40.0,49,17.52,65.2,0,2.0,83.9,4.8,0,0.00,0.00,0.00,55.4,.,.,.,.,57.0,.,.,.,.
10min,FGNet,alpine,42.04,12AUG2020:04:30:00,56.3,39.9,48,17.51,65.1,0,1.5,114.9,4.8,0,0.00,0.00,0.00,54.0,.,.,.,.,56.1,.,.,.,.
10min,FGNet,alpine,42.04,12AUG2020:04:40:00,56.3,40.1,49,17.53,65.1,0,2.5,56.75,3.9,0,0.00,0.00,0.00,54.8,.,.,.,.,56.3,.,.,.,.
10min,FGNet,alpine,42.04,12AUG2020:04:50:00,57.5,39.2,46,17.49,65.1,0,3.3,74.24,4.8,0,0.00,0.00,0.00,56.0,.,.,.,.,57.3,.,.,.,.
10min,FGNet,alpine,42.04,12AUG2020:05:00:00,56.7,40.4,48,17.53,64.9,0,2.4,145.7,3.7,0,0.00,0.00,0.00,53.9,.,.,.,.,55.5,.,.,.,.
10min,FGNet,alpine,42.04,12AUG2020:05:10:00,56.7,39.5,47,17.51,65.0,0,2.7,82.2,3.5,0,0.00,0.00,0.00,56.9,.,.,.,.,58.7,.,.,.,.
10min,FGNet,alpine,42.04,12AUG2020:05:20:00,57.0,39.5,46,17.54,64.8,0,2.2,55.95,3.9,0,0.00,0.00,0.00,53.8,.,.,.,.,56.0,.,.,.,.
10min,FGNet,alpine,42.04,12AUG2020:05:30:00,56.1,40.0,49,17.51,64.7,0,2.1,108.9,4.2,0,0.00,0.00,0.00,53.1,.,.,.,.,54.5,.,.,.,.
10min,FGNet,alpine,42.04,12AUG2020:05:40:00,56.7,40.0,48,17.56,64.7,0,2.3,97.7,3.3,0,0.00,0.00,0.00,54.4,.,.,.,.,55.4,.,.,.,.
10min,FGNet,alpine,42.04,12AUG2020:05:50:00,56.2,40.3,49,17.52,64.6,0,2.7,89.4,4.2,0,0.00,0.00,0.00,55.3,.,.,.,.,56.7,.,.,.,.
10min,FGNet,alpine,42.04,12AUG2020:06:00:00,57.1,40.3,48,17.53,64.6,0,2.5,95.3,3.7,0,0.00,0.00,0.00,55.2,.,.,.,.,56.5,.,.,.,.